sat.trackr.live / text

‹ back to catalog

STARLINK-3102

NORAD 49151 · 2021-082X

PAYLOAD ACTIVE UNKNOWN

§ Identity

Operator
Country
US
Launch date
2021-09-14
Launch site
AFWTR
Launch vehicle
Mass (kg)
RCS (m²)

Purposes: comms

External: N2YO · Heavens-Above · Gunter

§ Orbital elements

Epoch: 2026-09-20T01:08:32.246016Z

Period
96.11 min
Inclination
69.9977°
Eccentricity
0.0002740
Mean motion
14.98331072 rev/d
Perigee alt
570.1 km
Apogee alt
574.0 km
Semi-major
6,950.2 km
B*
4.1034e-5
RAAN
124.4006°
Arg perigee
269.9977°
Mean anomaly
90.0868°
Rev number
27,727

§ Raw data

STARLINK-31021 49151U 21082X   26263.04759544  .00000397  00000+0  41034-4 0  99942 49151  69.9977 124.4006 0002740 269.9977  90.0868 14.98331072277272

JSON: /api/v1/satellites/49151 · /tle

For live sub-satellite position, see the globe view (requires WebGL).

§ Visibility from observer

Set your observer location to see the next 7 days of passes ≥ 10°. The values pass through the URL so the page stays shareable.

No JS? Fill the form by hand. The geolocation button needs JavaScript.